Naples, FL

11:07 AM EDT on May 25, 2017 (GMT -0400)
Naples Municipal

Weather History for KAPF - March, 2013

Change the Weather History Date:

Monday, March 18, 2013

  Actual Average Record
Temperature  
Mean Temperature 73 °F 70 °F  
Max Temperature 80 °F 80 °F 90 °F (1986)
Min Temperature 65 °F 60 °F 43 °F (1978)
Degree Days  
Heating Degree Days 0 1  
Month to date heating degree days 63 18  
Since 1 July heating degree days 157 251  
Cooling Degree Days 8 6  
Month to date cooling degree days 20 93  
Year to date cooling degree days 348 284  
Growing Degree Days 21 (Base 50)    
Moisture  
Dew Point 65 °F    
Average Humidity 82    
Maximum Humidity 100    
Minimum Humidity 64    
Precipitation  
Precipitation 0.48 in 0.08 in 0.91 in (1960)
Month to date precipitation 0.53 1.25  
Year to date precipitation 2.35 5.20  
Snow  
Snow 0.00 in - - ()
Month to date snowfall 0.0  
Since 1 July snowfall 0.0  
Snow Depth 0.00 in    
Sea Level Pressure  
Sea Level Pressure 30.01 in    
Wind  
Wind Speed 8 mph (SSE)    
Max Wind Speed 23 mph    
Max Gust Speed 31 mph    
Visibility 7 miles    
Events Rain , Thunderstorm    
T = Trace of Precipitation, MM = Missing Value Source: NWS Daily Summary

Daily Weather History Graph

Daily Weather History Graph

Search for Another Location

Airport or City:

Trip Planner

Search our weather history database for the weather conditions in past years. The results will help you decide how hot, cold, wet, or windy it might be!

Date:

Astronomy

Mar. 18, 2013 Rise Set
Actual Time 7:32 AM EDT 7:37 PM EDT
Civil Twilight 7:09 AM EDT 8:00 PM EDT
Nautical Twilight 6:43 AM EDT 8:27 PM EDT
Astronomical Twilight 6:16 AM EDT 8:54 PM EDT
Moon 12:03 PM EDT (3/18) 1:04 AM EDT (3/18)
Length of Visible Light 12h 50m
Length of Day
12h 04m
Waxing Crescent, 40% of the Moon is Illuminated
Mar 18
Waxing Crescent
Mar 19
First Quarter
Mar 27
Full
Apr 3
Last Quarter
Apr 10
New

Hourly Weather History & Observations

Time (EDT) Temp. Dew Point Humidity Pressure Visibility Wind Dir Wind Speed Gust Speed Precip Events Conditions
12:53 AM 64.9 °F 57.9 °F 78% 30.05 in 10.0 mi ESE 6.9 mph - N/A   Clear
1:53 AM 64.9 °F 57.9 °F 78% 30.03 in 10.0 mi ESE 6.9 mph - N/A   Clear
2:53 AM 64.9 °F 57.9 °F 78% 30.02 in 10.0 mi ESE 5.8 mph - N/A   Partly Cloudy
3:53 AM 64.9 °F 59.0 °F 81% 30.01 in 10.0 mi ESE 5.8 mph - N/A   Clear
4:53 AM 64.9 °F 59.0 °F 81% 30.01 in 10.0 mi East 6.9 mph - N/A   Mostly Cloudy
5:53 AM 64.9 °F 60.1 °F 84% 30.01 in 10.0 mi East 8.1 mph - N/A   Mostly Cloudy
6:53 AM 66.0 °F 61.0 °F 84% 30.02 in 10.0 mi ESE 8.1 mph - N/A   Mostly Cloudy
7:53 AM 66.0 °F 61.0 °F 84% 30.04 in 10.0 mi ESE 6.9 mph - N/A   Scattered Clouds
8:53 AM 68.0 °F 62.1 °F 81% 30.04 in 10.0 mi ESE 6.9 mph - N/A   Clear
9:53 AM 73.0 °F 64.0 °F 73% 30.05 in 10.0 mi SE 11.5 mph - N/A   Clear
10:53 AM 77.0 °F 64.9 °F 66% 30.04 in 10.0 mi SE 15.0 mph 21.9 mph N/A   Mostly Cloudy
11:53 AM 78.1 °F 66.0 °F 66% 30.04 in 10.0 mi SSE 17.3 mph - N/A   Overcast
12:53 PM 78.1 °F 66.0 °F 66% 30.01 in 10.0 mi SSE 17.3 mph 31.1 mph N/A   Mostly Cloudy
1:53 PM 77.0 °F 66.0 °F 69% 30.01 in 10.0 mi South 13.8 mph 21.9 mph N/A   Overcast
2:01 PM 77.0 °F 66.2 °F 69% 30.00 in 10.0 mi South 11.5 mph 19.6 mph N/A   Overcast
2:53 PM 75.0 °F 66.9 °F 76% 30.00 in 6.0 mi South 13.8 mph - 0.00 in Rain Light Rain
3:14 PM 73.4 °F 69.8 °F 88% 30.01 in 2.0 mi SSW 8.1 mph - 0.06 in Rain Rain
3:33 PM 71.6 °F 69.8 °F 94% 30.01 in 1.0 mi SSW 8.1 mph - 0.24 in Rain Heavy Rain
3:46 PM 71.6 °F 69.8 °F 94% 30.00 in 2.0 mi SSW 11.5 mph - 0.30 in Rain , Thunderstorm Thunderstorms and Rain
3:53 PM 71.1 °F 68.0 °F 90% 30.00 in 2.0 mi SSW 8.1 mph - 0.32 in Rain , Thunderstorm Thunderstorms and Rain
4:06 PM 69.8 °F 69.8 °F 100% 30.00 in 2.0 mi SSW 12.7 mph 20.7 mph 0.04 in Rain Rain
4:24 PM 69.8 °F 69.8 °F 100% 30.00 in 1.8 mi SW 8.1 mph - 0.12 in Rain Rain
4:29 PM 69.8 °F 69.8 °F 100% 30.00 in 1.5 mi SW 6.9 mph - 0.14 in Rain Rain
4:32 PM 69.8 °F 69.8 °F 100% 30.00 in 1.8 mi SW 8.1 mph - 0.15 in Rain Rain
4:53 PM 70.0 °F 69.1 °F 97% 30.01 in 5.0 mi SW 4.6 mph - 0.16 in Rain Light Rain
5:53 PM 70.0 °F 66.9 °F 90% 30.00 in 6.0 mi Calm Calm - 0.00 in Rain Light Rain
6:53 PM 69.1 °F 66.0 °F 90% 29.99 in 5.0 mi SE 3.5 mph - 0.00 in Rain Light Rain
7:53 PM 68.0 °F 66.0 °F 93% 29.96 in 8.0 mi East 6.9 mph - 0.00 in   Partly Cloudy
8:53 PM 68.0 °F 66.0 °F 93% 29.97 in 8.0 mi ESE 5.8 mph - 0.00 in Rain Light Rain
9:53 PM 68.0 °F 64.9 °F 90% 29.98 in 9.0 mi East 3.5 mph - 0.00 in   Scattered Clouds
10:53 PM 68.0 °F 64.9 °F 90% 30.00 in 9.0 mi NNW 3.5 mph - 0.00 in   Mostly Cloudy
11:53 PM 66.9 °F 66.0 °F 97% 30.02 in 6.0 mi West 5.8 mph - 0.00 in   Mostly Cloudy